This demonstration page uses our WeatherBlox Daily Observations layout. Learn more.

Left ArrowRight Arrow

39.08367, -84.50855

Hourly Observations for August 13, 2020

Temp ( °F °C ) Dew Point ( °F °C ) Humidity (%) Winds ( mph kmh ) Pressure ( in mb ) Visibility ( mi km ) Precip ( " mm )
12:53 am 00:53 Mostly Cloudy with Mist and Fog 73 22.8 71 21.7 94 94 N N/A 30.04 1017 6 10 N/A
1:53 am 01:53 Partly Cloudy 72 22.2 71 21.7 97 97 NE 3 6 30.05 1018 7 11 N/A
2:53 am 02:53 Clear 71 21.7 68 20 90 90 N N/A 30.05 1018 10 16 N/A
3:53 am 03:53 Clear 70 21.1 67 19.4 90 90 N 3 6 30.05 1018 10 16 N/A
4:53 am 04:53 Clear 69 20.6 66 18.9 90 90 N N/A 30.04 1017 10 16 N/A
5:53 am 05:53 Clear 70 21.1 67 19.4 90 90 N N/A 30.05 1018 10 16 N/A
6:53 am 06:53 Sunny 68 20 66 18.9 93 93 N N/A 30.06 1018 10 16 N/A
7:53 am 07:53 Sunny 70 21.1 68 20 93 93 N N/A 30.06 1018 10 16 N/A
8:53 am 08:53 Sunny 74 23.3 67 19.4 79 79 ENE 5 7 30.06 1018 10 16 N/A
9:53 am 09:53 Sunny 78 25.6 68 20 71 71 N 5 7 30.06 1018 10 16 N/A
10:53 am 10:53 Sunny 81 27.2 70 21.1 69 69 NE 5 7 30.06 1018 10 16 N/A
11:53 am 11:53 Sunny 84 28.9 69 20.6 61 61 NE 8 13 30.05 1018 10 16 N/A
12:53 pm 12:53 Mostly Cloudy 86 30 69 20.6 57 57 NE 7 11 30.06 1018 10 16 N/A
1:53 pm 13:53 Partly Cloudy 87 30.6 69 20.6 55 55 NE 8 13 30.04 1017 10 16 N/A
2:53 pm 14:53 Sunny 87 30.6 67 19.4 51 51 N N/A 30.01 1016 10 16 N/A
3:53 pm 15:53 Partly Cloudy 88 31.1 68 20 52 52 NE 8 13 29.98 1015 10 16 N/A
4:53 pm 16:53 Mostly Cloudy 87 30.6 67 19.4 51 51 ENE 5 7 29.97 1015 10 16 N/A
5:53 pm 17:53 Partly Cloudy 87 30.6 68 20 53 53 NE 7 11 29.96 1015 10 16 N/A
6:53 pm 18:53 Partly Cloudy 86 30 70 21.1 59 59 ENE 5 7 29.96 1015 10 16 N/A
7:53 pm 19:53 Sunny 81 27.2 75 23.9 82 82 N N/A 29.97 1015 10 16 N/A
8:53 pm 20:53 Clear 77 25 72 22.2 85 85 N N/A 29.98 1015 10 16 N/A
9:53 pm 21:53 Clear 75 23.9 71 21.7 88 88 N N/A 29.99 1016 10 16 N/A
10:53 pm 22:53 Clear 74 23.3 70 21.1 88 88 N N/A 29.99 1016 10 16 N/A
11:53 pm 23:53 Clear 73 22.8 70 21.1 90 90 N N/A 29.99 1016 10 16 N/A

Powered by AerisWeather